| time (UTC) | temp C | wind direction | speed KPH | gust KPH | rain 1hr cm | rain 24hr cm | rain mn cm | humidity % | barometer mb |
| 20260906191526 | 23 | 16 | 0.0 | 8.0 | 0.00 | 0.03 | 0.03 | 57 | 1020.6 |
| 20260906190032 | 23 | 202 | 0.0 | 3.2 | 0.00 | 0.03 | 0.03 | 53 | 1020.9 |
| 20260906184513 | 23 | 162 | 0.0 | 9.7 | 0.00 | 0.03 | 0.03 | 49 | 1020.9 |
| 20260906183026 | 24 | 66 | 0.0 | 6.4 | 0.00 | 0.03 | 0.03 | 51 | 1021.0 |
| 20260906181549 | 24 | 28 | 1.6 | 6.4 | 0.00 | 0.03 | 0.03 | 50 | 1021.1 |
| 20260906180007 | 24 | 140 | 1.6 | 6.4 | 0.00 | 0.03 | 0.03 | 51 | 1021.2 |
| 20260906174514 | 24 | 131 | 0.0 | 6.4 | 0.00 | 0.03 | 0.03 | 52 | 1021.3 |
| 20260906173025 | 24 | 70 | 1.6 | 6.4 | 0.00 | 0.03 | 0.03 | 57 | 1021.4 |
| 20260906171532 | 23 | 203 | 0.0 | 11.3 | 0.00 | 0.03 | 0.03 | 61 | 1021.4 |
| 20260906170026 | 23 | 30 | 1.6 | 6.4 | 0.00 | 0.03 | 0.03 | 61 | 1021.4 |
| 20260906164508 | 23 | 27 | 0.0 | 4.8 | 0.00 | 0.03 | 0.03 | 62 | 1021.2 |
| 20260906163020 | 23 | 34 | 1.6 | 11.3 | 0.00 | 0.03 | 0.03 | 64 | 1021.4 |
| 20260906161518 | 23 | 66 | 0.0 | 6.4 | 0.00 | 0.03 | 0.03 | 68 | 1021.4 |
| 20260906160025 | 22 | 106 | 0.0 | 3.2 | 0.00 | 0.03 | 0.03 | 73 | 1021.2 |
| 20260906154530 | 21 | 86 | 0.0 | 4.8 | 0.00 | 0.03 | 0.03 | 73 | 1021.4 |
| 20260906153010 | 20 | 169 | 0.0 | 6.4 | 0.00 | 0.03 | 0.03 | 80 | 1021.4 |
| 20260906151517 | 18 | 171 | 0.0 | 0.0 | 0.00 | 0.03 | 0.03 | 85 | 1021.5 |
| 20260906150029 | 17 | 172 | 0.0 | 1.6 | 0.00 | 0.03 | 0.03 | 93 | 1021.5 |
| 20260906144528 | 17 | 171 | 0.0 | 1.6 | 0.00 | 0.03 | 0.03 | 97 | 1021.4 |
| 20260906143007 | 16 | 206 | 0.0 | 6.4 | 0.00 | 0.03 | 0.03 | 97 | 1021.4 |
| 20260906141511 | 16 | 17 | 0.0 | 1.6 | 0.00 | 0.03 | 0.03 | 97 | 1021.6 |
| 20260906140022 | 15 | 20 | 0.0 | 0.0 | 0.00 | 0.03 | 0.03 | 97 | 1021.5 |
| 20260906134527 | 13 | 360 | 0.0 | 0.0 | 0.00 | 0.03 | 0.03 | 97 | 1021.6 |
| 20260906133036 | 12 | 28 | 0.0 | 0.0 | 0.00 | 0.03 | 0.03 | 97 | 1021.4 |
| 20260906131509 | 12 | 20 | 0.0 | 0.0 | 0.03 | 0.03 | 0.03 | 97 | 1021.5 |
| 20260906130014 | 11 | 20 | 0.0 | 0.0 | 0.03 | 0.03 | 0.03 | 97 | 1021.7 |
| 20260906124520 | 11 | 360 | 0.0 | 0.0 | 0.03 | 0.03 | 0.03 | 97 | 1021.7 |
| 20260906123033 | 11 | 360 | 0.0 | 0.0 | 0.03 | 0.03 | 0.03 | 96 | 1021.5 |
| 20260906121532 | 10 | 360 | 0.0 | 0.0 | 0.00 | 0.00 | 0.00 | 96 | 1021.4 |
| 20260906120012 | 10 | 360 | 0.0 | 0.0 | 0.00 | 0.00 | 0.00 | 96 | 1021.4 |
| 20260906114533 | 10 | 360 | 0.0 | 0.0 | 0.00 | 0.00 | 0.00 | 96 | 1021.3 |
| 20260906113027 | 10 | 32 | 0.0 | 0.0 | 0.00 | 0.00 | 0.00 | 96 | 1021.0 |
| 20260906111531 | 10 | 360 | 0.0 | 0.0 | 0.00 | 0.00 | 0.00 | 96 | 1021.0 |
| 20260906110034 | 10 | 26 | 0.0 | 0.0 | 0.00 | 0.00 | 0.00 | 95 | 1020.7 |
| 20260906104514 | 10 | 25 | 0.0 | 0.0 | 0.00 | 0.00 | 0.00 | 95 | 1020.9 |
| 20260906103018 | 10 | 25 | 0.0 | 0.0 | 0.00 | 0.00 | 0.00 | 95 | 1020.7 |
| 20260906101524 | 10 | 25 | 0.0 | 0.0 | 0.00 | 0.00 | 0.00 | 95 | 1020.7 |
| 20260906100032 | 10 | 25 | 0.0 | 0.0 | 0.00 | 0.00 | 0.00 | 95 | 1020.8 |
| 20260906094531 | 10 | 25 | 0.0 | 0.0 | 0.00 | 0.00 | 0.00 | 95 | 1020.9 |
| 20260906093014 | 10 | 25 | 0.0 | 0.0 | 0.00 | 0.00 | 0.00 | 95 | 1020.9 |
| 20260906091524 | 10 | 25 | 0.0 | 0.0 | 0.00 | 0.00 | 0.00 | 95 | 1020.9 |
| 20260906090028 | 10 | 24 | 0.0 | 0.0 | 0.00 | 0.00 | 0.00 | 95 | 1020.8 |
| 20260906084533 | 10 | 24 | 0.0 | 0.0 | 0.00 | 0.00 | 0.00 | 95 | 1020.8 |
| 20260906083032 | 10 | 24 | 0.0 | 0.0 | 0.00 | 0.00 | 0.00 | 95 | 1020.7 |
| 20260906081517 | 10 | 24 | 0.0 | 0.0 | 0.00 | 0.00 | 0.00 | 95 | 1020.6 |
| 20260906080024 | 10 | 360 | 0.0 | 0.0 | 0.00 | 0.00 | 0.00 | 95 | 1020.6 |
| 20260906074527 | 11 | 360 | 0.0 | 0.0 | 0.00 | 0.00 | 0.00 | 95 | 1020.5 |
| 20260906073041 | 11 | 32 | 0.0 | 0.0 | 0.00 | 0.00 | 0.00 | 95 | 1020.6 |
| 20260906071533 | 11 | 32 | 0.0 | 0.0 | 0.00 | 0.00 | 0.00 | 95 | 1020.4 |
| 20260906070019 | 11 | 31 | 0.0 | 0.0 | 0.00 | 0.00 | 0.00 | 95 | 1020.3 |
| 20260906064529 | 11 | 32 | 0.0 | 0.0 | 0.00 | 0.00 | 0.00 | 94 | 1020.3 |
| 20260906063031 | 11 | 34 | 0.0 | 0.0 | 0.00 | 0.00 | 0.00 | 94 | 1020.2 |
| 20260906061534 | 11 | 34 | 0.0 | 0.0 | 0.00 | 0.00 | 0.00 | 94 | 1020.2 |
| 20260906060015 | 11 | 34 | 0.0 | 0.0 | 0.00 | 0.00 | 0.00 | 94 | 1020.2 |
| 20260906054524 | 11 | 29 | 0.0 | 0.0 | 0.00 | 0.00 | 0.00 | 94 | 1020.1 |
| 20260906053004 | 12 | 29 | 0.0 | 0.0 | 0.00 | 0.00 | 0.00 | 94 | 1019.8 |
| 20260906051512 | 12 | 360 | 0.0 | 0.0 | 0.00 | 0.00 | 0.00 | 94 | 1019.9 |
| 20260906050016 | 12 | 360 | 0.0 | 0.0 | 0.00 | 0.00 | 0.00 | 94 | 1019.9 |
| 20260906044518 | 12 | 360 | 0.0 | 0.0 | 0.00 | 0.00 | 0.00 | 94 | 1019.8 |
| 20260906043026 | 12 | 26 | 0.0 | 0.0 | 0.00 | 0.00 | 0.00 | 94 | 1019.9 |
| 20260906041504 | 12 | 27 | 0.0 | 0.0 | 0.00 | 0.00 | 0.00 | 94 | 1019.8 |
| 20260906040021 | 13 | 26 | 0.0 | 0.0 | 0.00 | 0.00 | 0.00 | 93 | 1019.6 |
| 20260906034513 | 13 | 27 | 0.0 | 0.0 | 0.00 | 0.00 | 0.00 | 93 | 1019.5 |
| 20260906033020 | 13 | 27 | 0.0 | 0.0 | 0.00 | 0.00 | 0.00 | 93 | 1019.4 |
| 20260906031546 | 13 | 29 | 0.0 | 0.0 | 0.00 | 0.00 | 0.00 | 93 | 1019.4 |
| 20260906030006 | 13 | 360 | 0.0 | 0.0 | 0.00 | 0.00 | 0.00 | 92 | 1019.3 |
| 20260906024508 | 14 | 27 | 0.0 | 0.0 | 0.00 | 0.00 | 0.00 | 92 | 1019.4 |
| 20260906023016 | 14 | 27 | 0.0 | 0.0 | 0.00 | 0.00 | 0.00 | 92 | 1019.3 |
| 20260906021522 | 15 | 27 | 0.0 | 0.0 | 0.00 | 0.00 | 0.00 | 92 | 1019.3 |
| 20260906020027 | 15 | 360 | 0.0 | 0.0 | 0.00 | 0.00 | 0.00 | 92 | 1019.3 |
| 20260906014511 | 15 | 30 | 0.0 | 0.0 | 0.00 | 0.00 | 0.00 | 92 | 1019.4 |
| 20260906013014 | 15 | 31 | 0.0 | 0.0 | 0.00 | 0.00 | 0.00 | 92 | 1019.4 |
| 20260906011523 | 16 | 28 | 0.0 | 0.0 | 0.00 | 0.00 | 0.00 | 91 | 1019.3 |
| 20260906010026 | 16 | 28 | 0.0 | 0.0 | 0.00 | 0.00 | 0.00 | 91 | 1019.3 |
| 20260906004530 | 16 | 30 | 0.0 | 0.0 | 0.00 | 0.00 | 0.00 | 90 | 1019.3 |
| 20260906003010 | 17 | 25 | 0.0 | 0.0 | 0.00 | 0.00 | 0.00 | 88 | 1019.4 |
| 20260906001514 | 17 | 39 | 0.0 | 0.0 | 0.00 | 0.00 | 0.00 | 87 | 1019.4 |
| 20260906000022 | 18 | 28 | 0.0 | 0.0 | 0.00 | 0.00 | 0.00 | 85 | 1019.3 |
| 20260905234531 | 18 | 34 | 0.0 | 0.0 | 0.00 | 0.00 | 0.00 | 84 | 1019.1 |
| 20260905233035 | 19 | 360 | 0.0 | 0.0 | 0.00 | 0.00 | 0.00 | 83 | 1019.1 |
| 20260905231510 | 20 | 30 | 0.0 | 3.2 | 0.00 | 0.00 | 0.00 | 80 | 1019.5 |
| 20260905230018 | 20 | 360 | 0.0 | 6.4 | 0.00 | 0.00 | 0.00 | 78 | 1019.3 |
| 20260905224524 | 20 | 54 | 0.0 | 6.4 | 0.00 | 0.00 | 0.00 | 76 | 1019.4 |
| 20260905223031 | 21 | 77 | 0.0 | 8.0 | 0.00 | 0.00 | 0.00 | 71 | 1019.4 |
| 20260905221531 | 21 | 360 | 0.0 | 4.8 | 0.00 | 0.00 | 0.00 | 75 | 1019.1 |
| 20260905220014 | 21 | 66 | 1.6 | 4.8 | 0.00 | 0.00 | 0.00 | 72 | 1019.2 |
| 20260905214523 | 21 | 30 | 0.0 | 8.0 | 0.00 | 0.00 | 0.00 | 71 | 1019.2 |
| 20260905213027 | 21 | 79 | 0.0 | 3.2 | 0.00 | 0.00 | 0.00 | 73 | 1019.2 |
| 20260905211530 | 21 | 30 | 0.0 | 6.4 | 0.00 | 0.00 | 0.00 | 72 | 1019.2 |
| 20260905210032 | 21 | 88 | 1.6 | 9.7 | 0.00 | 0.00 | 0.00 | 71 | 1018.9 |
| 20260905204516 | 22 | 41 | 0.0 | 9.7 | 0.00 | 0.00 | 0.00 | 72 | 1018.8 |
| 20260905203034 | 22 | 23 | 1.6 | 9.7 | 0.00 | 0.00 | 0.00 | 68 | 1018.8 |
| 20260905201530 | 22 | 52 | 1.6 | 6.4 | 0.00 | 0.00 | 0.00 | 69 | 1019.2 |
| 20260905200037 | 22 | 71 | 1.6 | 8.0 | 0.00 | 0.00 | 0.00 | 66 | 1019.2 |
| 20260905194534 | 22 | 255 | 1.6 | 11.3 | 0.00 | 0.00 | 0.00 | 64 | 1019.4 |
| 20260905193016 | 23 | 33 | 0.0 | 6.4 | 0.00 | 0.00 | 0.00 | 62 | 1019.4 |